AZU2423 SBCF-SBSG

Flight info

Callsign AZU2423
Flight time N/A
Altitude 39000
Route ILPIR UZ72 EDNES UN866 DIMOD DCT TOSAD
Aircraft A20N/M-SDE2E3FGHIRWXY/LB1

Departure

Time 2026-05-07 23:26
Airport Tancredo Neves International Airport (SBCF)

Arrival

Time N/A
Airport Rio Grande do Norte/São Gonçalo do Amarante–Governador Aluízio Alves International Airport (SBSG)
Time Latitude Longitude Altitude Speed Heading
2026-05-07 22:51 -19.62964 -43.96681 2797 ft 0 kts 50°
2026-05-07 23:11 -19.62980 -43.96699 2812 ft 4 kts 46°
2026-05-07 23:12 -19.62999 -43.96718 2815 ft 4 kts 36°
2026-05-07 23:12 -19.63022 -43.96731 2818 ft 4 kts
2026-05-07 23:12 -19.63037 -43.96729 2816 ft 0 kts 320°
2026-05-07 23:17 -19.63001 -43.96760 2816 ft 11 kts 321°
2026-05-07 23:17 -19.62945 -43.96812 2815 ft 10 kts 318°
2026-05-07 23:18 -19.62896 -43.96858 2813 ft 9 kts 318°
2026-05-07 23:18 -19.62866 -43.96906 2812 ft 7 kts 298°
2026-05-07 23:18 -19.62832 -43.96940 2812 ft 7 kts 323°
2026-05-07 23:18 -19.62790 -43.96977 2812 ft 9 kts 319°
2026-05-07 23:19 -19.62781 -43.97029 2813 ft 8 kts 240°
2026-05-07 23:19 -19.62819 -43.97082 2813 ft 10 kts 223°
2026-05-07 23:19 -19.62833 -43.97145 2813 ft 10 kts 300°
2026-05-07 23:19 -19.62774 -43.97202 2813 ft 11 kts 320°
2026-05-07 23:20 -19.62719 -43.97254 2813 ft 10 kts 319°
2026-05-07 23:20 -19.62670 -43.97298 2813 ft 8 kts 320°
2026-05-07 23:20 -19.62628 -43.97335 2813 ft 7 kts 320°
2026-05-07 23:20 -19.62593 -43.97367 2812 ft 7 kts 318°
2026-05-07 23:21 -19.62552 -43.97406 2812 ft 9 kts 319°
2026-05-07 23:21 -19.62497 -43.97456 2812 ft 11 kts 319°
2026-05-07 23:21 -19.62432 -43.97516 2812 ft 13 kts 318°
2026-05-07 23:21 -19.62368 -43.97576 2812 ft 11 kts 319°
2026-05-07 23:22 -19.62314 -43.97627 2816 ft 9 kts 319°
2026-05-07 23:22 -19.62283 -43.97676 2815 ft 7 kts 274°
2026-05-07 23:22 -19.62298 -43.97712 2815 ft 0 kts 232°
2026-05-07 23:24 -19.62331 -43.97756 2814 ft 14 kts 230°
2026-05-07 23:24 -19.62414 -43.97757 2813 ft 11 kts 159°
2026-05-07 23:24 -19.62429 -43.97747 2813 ft 0 kts 141°
2026-05-07 23:25 -19.62444 -43.97734 2812 ft 21 kts 140°
2026-05-07 23:25 -19.62751 -43.97448 2812 ft 92 kts 139°
2026-05-07 23:26 -19.63384 -43.96864 2811 ft 146 kts 139°
2026-05-07 23:26 -19.64261 -43.96064 2914 ft 180 kts 139°
2026-05-07 23:26 -19.65202 -43.95211 3616 ft 176 kts 137°
2026-05-07 23:26 -19.66135 -43.94348 4182 ft 183 kts 134°
2026-05-07 23:27 -19.68157 -43.92429 4600 ft 226 kts 134°
2026-05-07 23:27 -19.69348 -43.91212 4842 ft 248 kts 123°
2026-05-07 23:27 -19.69914 -43.89466 5233 ft 258 kts 85°
2026-05-07 23:28 -19.69446 -43.87632 5930 ft 261 kts 62°
2026-05-07 23:28 -19.68549 -43.85941 6771 ft 265 kts 56°
2026-05-07 23:28 -19.67565 -43.84287 7531 ft 269 kts 56°
2026-05-07 23:28 -19.66588 -43.82569 8303 ft 274 kts 58°
2026-05-07 23:29 -19.65653 -43.80778 9038 ft 280 kts 60°
2026-05-07 23:29 -19.64761 -43.78924 9844 ft 283 kts 62°
2026-05-07 23:29 -19.63738 -43.77113 10437 ft 293 kts 47°
2026-05-07 23:29 -19.62065 -43.75784 10657 ft 313 kts 24°
2026-05-07 23:30 -19.60034 -43.74889 11113 ft 325 kts 22°
2026-05-07 23:30 -19.57915 -43.73976 11773 ft 330 kts 22°
2026-05-07 23:30 -19.55855 -43.73084 12450 ft 333 kts 22°
2026-05-07 23:30 -19.53699 -43.72146 13150 ft 336 kts 22°
2026-05-07 23:31 -19.51521 -43.71194 13845 ft 339 kts 22°
2026-05-07 23:31 -19.49328 -43.70230 14428 ft 343 kts 23°
2026-05-07 23:31 -19.47112 -43.69252 14980 ft 347 kts 23°
2026-05-07 23:31 -19.44899 -43.68273 15496 ft 352 kts 23°
2026-05-07 23:32 -19.42616 -43.67266 16017 ft 356 kts 23°
2026-05-07 23:32 -19.40309 -43.66252 16548 ft 361 kts 23°
2026-05-07 23:32 -19.37975 -43.65229 17095 ft 364 kts 23°
2026-05-07 23:32 -19.35617 -43.64198 17617 ft 369 kts 23°
2026-05-07 23:33 -19.33250 -43.63162 18114 ft 374 kts 24°
2026-05-07 23:33 -19.30828 -43.62101 18584 ft 378 kts 24°
2026-05-07 23:33 -19.28371 -43.61021 19011 ft 383 kts 24°
2026-05-07 23:33 -19.25895 -43.59932 19436 ft 387 kts 24°
2026-05-07 23:34 -19.23390 -43.58833 19887 ft 392 kts 23°
2026-05-07 23:34 -19.20891 -43.57738 20317 ft 395 kts 24°
2026-05-07 23:34 -19.18334 -43.56616 20748 ft 399 kts 24°
2026-05-07 23:34 -19.15756 -43.55483 21190 ft 403 kts 24°
2026-05-07 23:35 -19.13155 -43.54344 21636 ft 406 kts 24°
2026-05-07 23:35 -19.10532 -43.53198 22054 ft 410 kts 24°
2026-05-07 23:35 -19.07883 -43.52040 22463 ft 413 kts 24°
2026-05-07 23:35 -19.05210 -43.50873 22883 ft 417 kts 24°
2026-05-07 23:36 -19.02517 -43.49695 23305 ft 421 kts 24°
2026-05-07 23:36 -18.99796 -43.48502 23706 ft 424 kts 24°
2026-05-07 23:36 -18.97056 -43.47300 24037 ft 428 kts 24°
2026-05-07 23:36 -18.94291 -43.46091 24377 ft 431 kts 24°
2026-05-07 23:37 -18.91548 -43.44892 24705 ft 434 kts 24°
2026-05-07 23:37 -18.88742 -43.43668 25048 ft 437 kts 24°
2026-05-07 23:37 -18.85922 -43.42441 25370 ft 440 kts 24°
2026-05-07 23:37 -18.83081 -43.41206 25700 ft 443 kts 24°
2026-05-07 23:38 -18.80209 -43.39957 26032 ft 446 kts 23°
2026-05-07 23:38 -18.77325 -43.38701 26356 ft 449 kts 23°
2026-05-07 23:38 -18.75405 -43.37862 26577 ft 451 kts 23°
2026-05-07 23:38 -18.72494 -43.36589 26896 ft 455 kts 24°
2026-05-07 23:39 -18.68597 -43.34884 27300 ft 459 kts 23°
2026-05-07 23:39 -18.66597 -43.34011 27515 ft 461 kts 23°
2026-05-07 23:39 -18.63658 -43.32732 27828 ft 464 kts 23°
2026-05-07 23:39 -18.60667 -43.31433 28138 ft 467 kts 23°
2026-05-07 23:40 -18.57649 -43.30123 28452 ft 470 kts 23°
2026-05-07 23:40 -18.54612 -43.28807 28764 ft 472 kts 23°
2026-05-07 23:40 -18.51555 -43.27484 29065 ft 475 kts 23°
2026-05-07 23:40 -18.48481 -43.26149 29359 ft 478 kts 23°
2026-05-07 23:41 -18.45398 -43.24810 29652 ft 482 kts 23°
2026-05-07 23:41 -18.42326 -43.23474 29947 ft 484 kts 23°
2026-05-07 23:41 -18.39192 -43.22114 30229 ft 487 kts 23°
2026-05-07 23:41 -18.36050 -43.20758 30468 ft 490 kts 22°
2026-05-07 23:42 -18.32878 -43.19390 30715 ft 492 kts 23°
2026-05-07 23:42 -18.29698 -43.18011 30952 ft 494 kts 23°
2026-05-07 23:42 -18.26502 -43.16625 31174 ft 497 kts 23°
2026-05-07 23:42 -18.23339 -43.15252 31394 ft 500 kts 23°
2026-05-07 23:43 -18.20120 -43.13857 31657 ft 501 kts 23°
2026-05-07 23:43 -18.16897 -43.12458 32004 ft 500 kts 23°
2026-05-07 23:43 -18.13676 -43.11063 32324 ft 500 kts 23°
2026-05-07 23:43 -18.10451 -43.09671 32657 ft 500 kts 23°
2026-05-07 23:44 -18.07222 -43.08279 32993 ft 500 kts 23°
2026-05-07 23:44 -18.04001 -43.06889 33297 ft 501 kts 23°
2026-05-07 23:44 -18.00773 -43.05495 33596 ft 501 kts 23°
2026-05-07 23:44 -17.97582 -43.04116 33905 ft 501 kts 23°
2026-05-07 23:45 -17.94354 -43.02723 34214 ft 501 kts 23°
2026-05-07 23:45 -17.91120 -43.01326 34478 ft 501 kts 23°
2026-05-07 23:45 -17.87881 -42.99930 34732 ft 502 kts 23°
2026-05-07 23:45 -17.84683 -42.98557 34993 ft 502 kts 23°
2026-05-07 23:46 -17.81448 -42.97166 35249 ft 501 kts 23°
2026-05-07 23:46 -17.78220 -42.95776 35504 ft 501 kts 23°
2026-05-07 23:46 -17.74995 -42.94389 35745 ft 501 kts 23°
2026-05-07 23:46 -17.71765 -42.92998 36000 ft 501 kts 23°
2026-05-07 23:47 -17.68537 -42.91608 36238 ft 501 kts 23°
2026-05-07 23:47 -17.65315 -42.90222 36469 ft 500 kts 23°
2026-05-07 23:47 -17.62085 -42.88836 36697 ft 500 kts 23°
2026-05-07 23:47 -17.58864 -42.87453 36906 ft 500 kts 23°
2026-05-07 23:48 -17.55684 -42.86085 37070 ft 500 kts 22°
2026-05-07 23:48 -17.52470 -42.84703 37114 ft 498 kts 22°
2026-05-07 23:48 -17.46061 -42.81961 37115 ft 497 kts 22°
2026-05-07 23:49 -17.39650 -42.79213 37102 ft 497 kts 22°
2026-05-07 23:49 -17.33285 -42.76492 37099 ft 496 kts 22°
2026-05-07 23:50 -17.26891 -42.73754 37102 ft 496 kts 22°
2026-05-07 23:50 -17.20494 -42.71017 37105 ft 496 kts 23°
2026-05-07 23:51 -17.14086 -42.68272 37098 ft 496 kts 22°
2026-05-07 23:51 -17.07727 -42.65557 37101 ft 496 kts 22°
2026-05-07 23:52 -17.01327 -42.62831 37099 ft 496 kts 22°
2026-05-07 23:52 -16.94932 -42.60103 37107 ft 496 kts 23°
2026-05-07 23:53 -16.88545 -42.57371 37098 ft 496 kts 23°
2026-05-07 23:53 -16.82188 -42.54664 37099 ft 496 kts 22°
2026-05-07 23:54 -16.75789 -42.51954 37097 ft 496 kts 22°
2026-05-07 23:54 -16.69380 -42.49241 37102 ft 496 kts 22°
2026-05-07 23:55 -16.63032 -42.46538 37101 ft 496 kts 22°
2026-05-07 23:55 -16.56641 -42.43817 37099 ft 495 kts 22°
2026-05-07 23:56 -16.50248 -42.41103 37099 ft 496 kts 22°
2026-05-07 23:56 -16.43846 -42.38387 37101 ft 496 kts 22°
2026-05-07 23:57 -16.37455 -42.35680 37098 ft 496 kts 22°
2026-05-07 23:57 -16.31094 -42.32996 37105 ft 496 kts 22°
2026-05-07 23:58 -16.24688 -42.30279 37106 ft 496 kts 22°
2026-05-07 23:58 -16.18313 -42.27582 37100 ft 496 kts 22°
2026-05-07 23:59 -16.11969 -42.24769 37108 ft 495 kts 26°
2026-05-07 23:59 -16.05781 -42.21608 37116 ft 495 kts 28°
2026-05-08 00:00 -15.99671 -42.18357 37124 ft 495 kts 28°
2026-05-08 00:00 -15.93497 -42.15160 37121 ft 495 kts 27°
2026-05-08 00:01 -15.87279 -42.12041 37127 ft 495 kts 26°
2026-05-08 00:01 -15.81068 -42.08931 37127 ft 495 kts 27°
2026-05-08 00:02 -15.74908 -42.05820 37124 ft 495 kts 27°
2026-05-08 00:02 -15.68711 -42.02677 37134 ft 495 kts 27°
2026-05-08 00:03 -15.62512 -41.99550 37136 ft 495 kts 27°
2026-05-08 00:03 -15.56316 -41.96430 37141 ft 495 kts 27°
2026-05-08 00:04 -15.50136 -41.93310 37131 ft 495 kts 27°
2026-05-08 00:04 -15.43927 -41.90170 37134 ft 495 kts 27°
2026-05-08 00:05 -15.37767 -41.87062 37139 ft 495 kts 27°
2026-05-08 00:05 -15.31564 -41.83942 37136 ft 495 kts 27°
2026-05-08 00:06 -15.25356 -41.80826 37124 ft 495 kts 27°
2026-05-08 00:06 -15.19192 -41.77723 37126 ft 494 kts 27°
2026-05-08 00:07 -15.12999 -41.74616 37130 ft 494 kts 27°
2026-05-08 00:07 -15.06800 -41.71509 37127 ft 494 kts 27°
2026-05-08 00:08 -15.00611 -41.68397 37121 ft 494 kts 27°
2026-05-08 00:08 -14.94430 -41.65293 37122 ft 494 kts 27°
2026-05-08 00:09 -14.88206 -41.62179 37104 ft 502 kts 27°
2026-05-08 00:09 -14.81894 -41.59020 37099 ft 512 kts 27°
2026-05-08 00:10 -14.75436 -41.55790 37106 ft 518 kts 27°
2026-05-08 00:10 -14.68937 -41.52536 37095 ft 520 kts 27°
2026-05-08 00:11 -14.62423 -41.49284 37090 ft 520 kts 27°
2026-05-08 00:11 -14.55942 -41.46043 37074 ft 520 kts 27°
2026-05-08 00:12 -14.49424 -41.42785 37093 ft 520 kts 26°
2026-05-08 00:12 -14.42893 -41.39535 37099 ft 520 kts 26°
2026-05-08 00:13 -14.36387 -41.36302 37103 ft 519 kts 26°
2026-05-08 00:13 -14.29872 -41.33053 37108 ft 519 kts 27°
2026-05-08 00:14 -14.23401 -41.29822 37105 ft 519 kts 27°
2026-05-08 00:14 -14.16888 -41.26577 37101 ft 520 kts 26°
2026-05-08 00:15 -14.10364 -41.23338 37102 ft 520 kts 26°
2026-05-08 00:15 -14.03867 -41.20107 37097 ft 520 kts 26°
2026-05-08 00:16 -13.97343 -41.16870 37111 ft 520 kts 26°
2026-05-08 00:16 -13.90816 -41.13635 37111 ft 519 kts 26°
2026-05-08 00:17 -13.84330 -41.10419 37116 ft 519 kts 26°
2026-05-08 00:17 -13.77779 -41.07173 37114 ft 519 kts 26°
2026-05-08 00:18 -13.71303 -41.03971 37117 ft 519 kts 26°
2026-05-08 00:18 -13.64782 -41.00749 37120 ft 518 kts 26°
2026-05-08 00:19 -13.58273 -40.97529 37119 ft 518 kts 26°
2026-05-08 00:19 -13.51782 -40.94316 37123 ft 517 kts 26°
2026-05-08 00:20 -13.45294 -40.91108 37132 ft 517 kts 26°
2026-05-08 00:20 -13.38847 -40.87928 37124 ft 516 kts 26°
2026-05-08 00:21 -13.32365 -40.84738 37107 ft 516 kts 26°
2026-05-08 00:21 -13.25930 -40.81562 37112 ft 515 kts 26°
2026-05-08 00:22 -13.19463 -40.78371 37117 ft 515 kts 26°
2026-05-08 00:22 -13.13008 -40.75188 37113 ft 514 kts 26°
2026-05-08 00:23 -13.07636 -40.72543 37100 ft 513 kts 25°
2026-05-08 00:23 -13.01200 -40.69372 37117 ft 512 kts 25°
2026-05-08 00:24 -12.94759 -40.66213 37108 ft 512 kts 25°
2026-05-08 00:24 -12.88371 -40.63065 37104 ft 512 kts 25°
2026-05-08 00:25 -12.81940 -40.59900 37087 ft 512 kts 25°
2026-05-08 00:25 -12.75515 -40.56745 37107 ft 511 kts 25°
2026-05-08 00:26 -12.69140 -40.53619 37106 ft 510 kts 25°
2026-05-08 00:26 -12.62730 -40.50472 37106 ft 510 kts 25°
2026-05-08 00:27 -12.56308 -40.47325 37102 ft 510 kts 25°
2026-05-08 00:27 -12.49949 -40.44213 37106 ft 509 kts 25°
2026-05-08 00:28 -12.43558 -40.41087 37105 ft 508 kts 25°
2026-05-08 00:28 -12.37166 -40.37960 37103 ft 508 kts 25°
2026-05-08 00:29 -12.30825 -40.34861 37089 ft 508 kts 24°
2026-05-08 00:29 -12.24459 -40.31754 37101 ft 506 kts 24°
2026-05-08 00:30 -12.18100 -40.28647 37111 ft 506 kts 24°
2026-05-08 00:30 -12.11741 -40.25538 37112 ft 505 kts 24°
2026-05-08 00:31 -12.05398 -40.22435 37099 ft 505 kts 24°
2026-05-08 00:31 -11.99090 -40.19366 37102 ft 504 kts 24°
2026-05-08 00:32 -11.92751 -40.16288 37104 ft 503 kts 24°
2026-05-08 00:32 -11.86435 -40.13219 37112 ft 503 kts 24°
2026-05-08 00:33 -11.80119 -40.10142 37095 ft 502 kts 24°
2026-05-08 00:33 -11.73805 -40.07066 37103 ft 502 kts 24°
2026-05-08 00:34 -11.67483 -40.03996 37100 ft 502 kts 24°
2026-05-08 00:34 -11.61208 -40.00940 37104 ft 502 kts 24°
2026-05-08 00:35 -11.54893 -39.97868 37112 ft 502 kts 24°
2026-05-08 00:35 -11.48577 -39.94798 37088 ft 502 kts 23°
2026-05-08 00:36 -11.42276 -39.91739 37091 ft 501 kts 23°
2026-05-08 00:36 -11.36019 -39.88707 37095 ft 500 kts 23°
2026-05-08 00:37 -11.29721 -39.85655 37090 ft 500 kts 23°
2026-05-08 00:38 -11.20291 -39.81080 37080 ft 499 kts 23°
2026-05-08 00:38 -11.14055 -39.78066 37089 ft 499 kts 22°
2026-05-08 00:39 -11.07785 -39.75026 37086 ft 498 kts 22°
2026-05-08 00:39 -11.01527 -39.71992 37072 ft 498 kts 22°
2026-05-08 00:40 -10.95280 -39.68976 37082 ft 497 kts 22°
2026-05-08 00:40 -10.89072 -39.65976 37083 ft 496 kts 22°
2026-05-08 00:41 -10.82839 -39.62960 37087 ft 495 kts 22°
2026-05-08 00:41 -10.76604 -39.59947 37081 ft 495 kts 22°
2026-05-08 00:42 -10.70385 -39.56944 37082 ft 494 kts 22°
2026-05-08 00:42 -10.64221 -39.53972 37085 ft 493 kts 22°
2026-05-08 00:43 -10.58021 -39.50984 37087 ft 492 kts 22°
2026-05-08 00:43 -10.51831 -39.47996 37083 ft 492 kts 22°
2026-05-08 00:44 -10.45647 -39.45013 37076 ft 491 kts 22°
2026-05-08 00:44 -10.39477 -39.42036 37083 ft 490 kts 22°
2026-05-08 00:45 -10.33307 -39.39057 37087 ft 490 kts 22°
2026-05-08 00:45 -10.27185 -39.36100 37085 ft 490 kts 23°
2026-05-08 00:46 -10.21337 -39.32500 37069 ft 492 kts 29°
2026-05-08 00:46 -10.15560 -39.28781 37072 ft 491 kts 29°
2026-05-08 00:47 -10.09785 -39.25069 37079 ft 490 kts 29°
2026-05-08 00:47 -10.04052 -39.21389 37078 ft 490 kts 29°
2026-05-08 00:48 -9.98283 -39.17683 37080 ft 490 kts 29°
2026-05-08 00:48 -9.92518 -39.13975 37073 ft 490 kts 29°
2026-05-08 00:49 -9.86800 -39.10298 37083 ft 489 kts 29°
2026-05-08 00:49 -9.81031 -39.06601 37076 ft 489 kts 29°
2026-05-08 00:50 -9.75317 -39.02934 37074 ft 488 kts 29°
2026-05-08 00:50 -9.69577 -38.99239 37062 ft 488 kts 29°
2026-05-08 00:51 -9.63846 -38.95557 37064 ft 486 kts 30°
2026-05-08 00:51 -9.58117 -38.91891 37071 ft 485 kts 29°
2026-05-08 00:52 -9.52408 -38.88241 37068 ft 485 kts 29°
2026-05-08 00:52 -9.46734 -38.84613 37067 ft 485 kts 29°
2026-05-08 00:53 -9.41030 -38.80951 37058 ft 484 kts 30°
2026-05-08 00:53 -9.35344 -38.77302 37062 ft 483 kts 29°
2026-05-08 00:54 -9.29692 -38.73687 37056 ft 482 kts 30°
2026-05-08 00:54 -9.24016 -38.70056 37053 ft 482 kts 30°
2026-05-08 00:55 -9.18337 -38.66423 37048 ft 482 kts 29°
2026-05-08 00:55 -9.12668 -38.62797 37051 ft 482 kts 29°
2026-05-08 00:56 -9.06991 -38.59167 37044 ft 481 kts 29°
2026-05-08 00:56 -9.01360 -38.55571 37051 ft 481 kts 29°
2026-05-08 00:57 -8.95696 -38.51959 37051 ft 481 kts 29°
2026-05-08 00:57 -8.90022 -38.48347 37048 ft 481 kts 29°
2026-05-08 00:58 -8.84364 -38.44727 37042 ft 481 kts 29°
2026-05-08 00:58 -8.78734 -38.41138 37040 ft 480 kts 29°
2026-05-08 00:59 -8.73086 -38.37536 37046 ft 480 kts 29°
2026-05-08 00:59 -8.67425 -38.33927 37046 ft 480 kts 29°
2026-05-08 01:00 -8.61766 -38.30325 37040 ft 480 kts 28°
2026-05-08 01:00 -8.56150 -38.26748 37040 ft 480 kts 28°
2026-05-08 01:01 -8.50494 -38.23156 37044 ft 480 kts 28°
2026-05-08 01:01 -8.44837 -38.19558 37050 ft 480 kts 28°
2026-05-08 01:02 -8.39178 -38.15949 37054 ft 480 kts 28°
2026-05-08 01:02 -8.33557 -38.12368 37048 ft 480 kts 28°
2026-05-08 01:03 -8.27901 -38.08764 37053 ft 480 kts 28°
2026-05-08 01:03 -8.22269 -38.05183 37053 ft 480 kts 28°
2026-05-08 01:04 -8.16605 -38.01596 37051 ft 480 kts 27°
2026-05-08 01:04 -8.10949 -37.98016 37052 ft 479 kts 27°
2026-05-08 01:05 -8.05306 -37.94430 37048 ft 480 kts 28°
2026-05-08 01:05 -7.99651 -37.90837 37061 ft 479 kts 28°
2026-05-08 01:06 -7.94049 -37.87289 37057 ft 478 kts 28°
2026-05-08 01:06 -7.88423 -37.83720 37058 ft 477 kts 28°
2026-05-08 01:07 -7.82792 -37.80139 37063 ft 477 kts 28°
2026-05-08 01:07 -7.77167 -37.76572 37057 ft 477 kts 28°
2026-05-08 01:08 -7.71539 -37.73016 37061 ft 476 kts 28°
2026-05-08 01:08 -7.65960 -37.69482 37068 ft 476 kts 28°
2026-05-08 01:09 -7.60364 -37.65923 37068 ft 475 kts 28°
2026-05-08 01:09 -7.54770 -37.62383 37061 ft 474 kts 28°
2026-05-08 01:10 -7.49194 -37.58862 37058 ft 472 kts 28°
2026-05-08 01:10 -7.43657 -37.55365 37056 ft 471 kts 28°
2026-05-08 01:11 -7.38100 -37.51846 37055 ft 470 kts 28°
2026-05-08 01:11 -7.32553 -37.48335 37045 ft 470 kts 28°
2026-05-08 01:12 -7.27010 -37.44838 37048 ft 469 kts 28°
2026-05-08 01:12 -7.21506 -37.41358 37035 ft 469 kts 28°
2026-05-08 01:13 -7.16876 -37.38432 37037 ft 469 kts 28°
2026-05-08 01:13 -7.11383 -37.34965 37028 ft 468 kts 28°
2026-05-08 01:14 -7.05853 -37.31471 37033 ft 468 kts 28°
2026-05-08 01:14 -7.00390 -37.27946 37021 ft 470 kts 34°
2026-05-08 01:14 -6.97970 -37.25701 37020 ft 475 kts 45°
2026-05-08 01:15 -6.96012 -37.22999 37016 ft 481 kts 57°
2026-05-08 01:15 -6.92900 -37.17115 37006 ft 462 kts 59°
2026-05-08 01:16 -6.89927 -37.11462 37014 ft 452 kts 59°
2026-05-08 01:16 -6.86985 -37.05919 36529 ft 454 kts 58°
2026-05-08 01:16 -6.85497 -37.03121 35992 ft 451 kts 58°
2026-05-08 01:17 -6.84021 -37.00342 35463 ft 449 kts 58°
2026-05-08 01:17 -6.82552 -36.97573 34925 ft 447 kts 58°
2026-05-08 01:17 -6.81088 -36.94807 34379 ft 446 kts 58°
2026-05-08 01:17 -6.79631 -36.92055 33817 ft 445 kts 59°
2026-05-08 01:18 -6.78172 -36.89298 33256 ft 443 kts 59°
2026-05-08 01:18 -6.76726 -36.86567 32724 ft 440 kts 59°
2026-05-08 01:18 -6.75306 -36.83882 32214 ft 439 kts 59°
2026-05-08 01:18 -6.73879 -36.81179 31681 ft 437 kts 59°
2026-05-08 01:19 -6.72452 -36.78483 31171 ft 435 kts 59°
2026-05-08 01:19 -6.71027 -36.75796 30662 ft 433 kts 59°
2026-05-08 01:19 -6.69603 -36.73118 30157 ft 432 kts 59°
2026-05-08 01:19 -6.68192 -36.70461 29627 ft 429 kts 59°
2026-05-08 01:20 -6.66811 -36.67854 29147 ft 425 kts 59°
2026-05-08 01:20 -6.65423 -36.65234 28684 ft 421 kts 59°
2026-05-08 01:20 -6.64054 -36.62650 28224 ft 417 kts 59°
2026-05-08 01:20 -6.62694 -36.60083 27767 ft 413 kts 59°
2026-05-08 01:21 -6.61263 -36.57607 27297 ft 407 kts 52°
2026-05-08 01:21 -6.59577 -36.55344 26843 ft 402 kts 50°
2026-05-08 01:21 -6.57892 -36.53108 26398 ft 399 kts 50°
2026-05-08 01:21 -6.56222 -36.50887 25931 ft 396 kts 50°
2026-05-08 01:22 -6.54582 -36.48708 25471 ft 394 kts 50°
2026-05-08 01:22 -6.52930 -36.46516 24992 ft 392 kts 50°
2026-05-08 01:22 -6.51288 -36.44340 24522 ft 390 kts 50°
2026-05-08 01:22 -6.49655 -36.42168 24035 ft 388 kts 50°
2026-05-08 01:23 -6.48032 -36.40004 23522 ft 382 kts 50°
2026-05-08 01:23 -6.46459 -36.37900 23017 ft 371 kts 50°
2026-05-08 01:23 -6.44910 -36.35834 22555 ft 368 kts 50°
2026-05-08 01:23 -6.43371 -36.33786 22109 ft 366 kts 50°
2026-05-08 01:24 -6.41860 -36.31776 21663 ft 364 kts 50°
2026-05-08 01:24 -6.40335 -36.29751 21223 ft 362 kts 51°
2026-05-08 01:24 -6.38817 -36.27738 20790 ft 360 kts 51°
2026-05-08 01:24 -6.37309 -36.25739 20351 ft 358 kts 51°
2026-05-08 01:25 -6.35805 -36.23742 19918 ft 357 kts 51°
2026-05-08 01:25 -6.34309 -36.21760 19491 ft 355 kts 51°
2026-05-08 01:25 -6.32817 -36.19783 19061 ft 354 kts 52°
2026-05-08 01:25 -6.31328 -36.17808 18642 ft 354 kts 52°
2026-05-08 01:26 -6.29843 -36.15833 18202 ft 353 kts 52°
2026-05-08 01:26 -6.28357 -36.13858 17750 ft 352 kts 52°
2026-05-08 01:26 -6.26884 -36.11903 17336 ft 350 kts 53°
2026-05-08 01:26 -6.25438 -36.09987 16937 ft 347 kts 53°
2026-05-08 01:27 -6.23979 -36.08055 16531 ft 345 kts 53°
2026-05-08 01:27 -6.22529 -36.06132 16135 ft 344 kts 53°
2026-05-08 01:27 -6.21088 -36.04218 15738 ft 342 kts 54°
2026-05-08 01:27 -6.19654 -36.02316 15344 ft 341 kts 54°
2026-05-08 01:28 -6.18222 -36.00419 14961 ft 340 kts 54°
2026-05-08 01:28 -6.16812 -35.98552 14584 ft 338 kts 54°
2026-05-08 01:28 -6.15390 -35.96669 14188 ft 338 kts 54°
2026-05-08 01:28 -6.13953 -35.94768 13781 ft 337 kts 54°
2026-05-08 01:29 -6.12538 -35.92896 13361 ft 335 kts 54°
2026-05-08 01:29 -6.11155 -35.91060 12964 ft 333 kts 54°
2026-05-08 01:29 -6.09762 -35.89214 12568 ft 330 kts 55°
2026-05-08 01:29 -6.08378 -35.87378 12166 ft 328 kts 55°
2026-05-08 01:30 -6.07010 -35.85566 11775 ft 321 kts 55°
2026-05-08 01:30 -6.05689 -35.83815 11366 ft 308 kts 55°
2026-05-08 01:30 -6.04420 -35.82137 10965 ft 296 kts 55°
2026-05-08 01:30 -6.03191 -35.80515 10580 ft 285 kts 56°
2026-05-08 01:31 -6.02025 -35.78973 10223 ft 275 kts 56°
2026-05-08 01:31 -6.00881 -35.77457 9838 ft 267 kts 56°
2026-05-08 01:31 -5.99759 -35.75971 9448 ft 266 kts 56°
2026-05-08 01:31 -5.98645 -35.74493 9060 ft 264 kts 56°
2026-05-08 01:32 -5.97540 -35.73026 8687 ft 263 kts 56°
2026-05-08 01:32 -5.96432 -35.71557 8304 ft 263 kts 56°
2026-05-08 01:32 -5.95322 -35.70088 7920 ft 264 kts 56°
2026-05-08 01:32 -5.94189 -35.68629 7513 ft 265 kts 54°
2026-05-08 01:33 -5.93025 -35.67189 7095 ft 266 kts 54°
2026-05-08 01:33 -5.91861 -35.65769 6678 ft 267 kts 54°
2026-05-08 01:33 -5.90677 -35.64327 6254 ft 267 kts 53°
2026-05-08 01:33 -5.89493 -35.62881 5814 ft 268 kts 54°
2026-05-08 01:34 -5.88311 -35.61432 5377 ft 268 kts 54°
2026-05-08 01:34 -5.87135 -35.59987 5058 ft 264 kts 54°
2026-05-08 01:34 -5.85969 -35.58555 4531 ft 268 kts 54°
2026-05-08 01:34 -5.84763 -35.57155 4311 ft 260 kts 46°
2026-05-08 01:35 -5.83284 -35.56172 4206 ft 252 kts 27°
2026-05-08 01:35 -5.81619 -35.55724 4091 ft 245 kts 13°